STARLINK-32493, 62025

Orbit data source: Space-Track

STARLINK-32493, 62025 is a payload satellite owned by SpaceX/Seattle (US) in LEO that was launched on Mon, 18 Nov 2024 UTC via an FALCON 9 launch vehicle from the Air Force Western Test Range (AFWTR). Payload-class satellites include a variety of spacecraft equipped with specific instruments for various scientific and technological missions. These include communications satellites like Starlink; space stations such as the ISS; scientific satellites like the Hubble; Earth observation satellites from companies like Planet Labs, Umbra, and HawkEye 360; GPS; miniature CubeSats for education and research; and military/defense satellites.

Loading next visibility...
Identifier
62025, 2024-213T
Orbit
LEO
Country
Flag of USUS
Related business
Manufacturer
SpaceX/Seattle
Mission
Operational Commercial Communications
Bus & Motor
STARLINK V2M, Unknown motor
Mass
730 kg wet, ~700 kg dry
Launch date (UTC)
2024-11-18 (1 year ago)
Launch vehicle
FALCON 9
Launch site
Air Force Western Test Range (AFWTR)
Object type
Payload
Rocket body
Debris
Shape & HBR
Box + 2 Pan, 17.7 m
Radar Cross Section
33.884 m², Large (>1 m²)

Expand to show TLE details & history
Last TLE update: 20 hours ago

TLE from 20 hours ago
0 STARLINK-32493
1 62025U 24213T   25343.11318051  .00042416  00000-0  14355-2 0  9991
2 62025  53.1575 229.0948 0001167  89.6245 270.4889 15.30212135 59281
Epoch: 2025-12-09T02:42Z
TLE epoch observation values (Epoch: 2025-12-09T02:42:58.796Z)
Latitude
-0.00004°
Longitude
110.24727°
Altitude
476.072 km
Speed
7.629 km/s
True Right ascension
15h 16m 22s
True Declination
0° 00' 00"
Sunlit
Object was in daylight at epoch
Visualization orbit readout
Latitude
Unknown
Longitude
Unknown
Altitude
Unknown
Speed
Unknown
Apparent Right ascension
Unknown
Apparent Declination
Unknown
Sunlit
N/A
Visualization observer readout
Local Sidereal Time
20:40:49
Azimuth
Unknown
Elevation
Unknown
Doppler factor
Unknown
Orbital elements
Apogee altitude
476.235 km
Perigee altitude
474.636 km
Semi-major axis
6,853.573 km
Eccentricity
0.00012
Inclination
53.1575°
RAAN
229.0948°
Arg. of periapsis
89.6245°
True anomaly
270.47553°
Mean anomaly
270.4889°
Eccentric anomaly
270.48221°
Mean motion
3.82532 °/min
Orbital period
94.11 mins
BSTAR
0.0014355
Loading maneuver chart data...
Computing Atmospheric mass density...
Loading historical data...
Loading historical data...
Loading historical data...
Loading historical data...
Loading historical data...
Loading historical data...
Loading historical data...

Documentation

Showing up to 5 results
|